• In Netherlands
  • List of Countries
  • For 7 days
  • Water Temperature
  • Satellite Maps
  • Weather Map
  • Weather Widgets
  • user-avatar
    Login

    Hourly Weather Canberra

    Today, 23 September, Sunday

    Time Temperature Precipitation Wind Pressure Humidity
    00:00 +8°C° 0 mm 1 mps 715 mmHg 92%
    01:00 +7°C° 0 mm 1 mps 715 mmHg 93%
    02:00 +6°C° 0 mm 0 mps 715 mmHg 93%
    03:00 +6°C° 0 mm 0 mps 715 mmHg 93%
    04:00 +5°C° 0 mm 0 mps 714 mmHg 94%
    05:00 +6°C° 0 mm 0 mps 715 mmHg 91%
    06:00 +7°C° 0 mm 0 mps 715 mmHg 89%
    07:00 +8°C° 0 mm 0 mps 715 mmHg 86%
    08:00 +11°C° 0 mm 0 mps 716 mmHg 74%
    09:00 +15°C° 0 mm 1 mps 716 mmHg 63%
    10:00 +20°C° 0 mm 1 mps 716 mmHg 48%
    11:00 +20°C° 0 mm 1 mps 716 mmHg 46%
    12:00 +20°C° 0 mm 2 mps 716 mmHg 44%
    13:00 +20°C° 0 mm 2 mps 715 mmHg 42%
    14:00 +19°C° 0.1 mm 3 mps 715 mmHg 51%
    15:00 +17°C° 0.1 mm 3 mps 715 mmHg 60%
    16:00 +17°C° 0 mm 2 mps 714 mmHg 66%
    17:00 +14°C° 0.3 mm 3 mps 715 mmHg 75%
    18:00 +12°C° 0.3 mm 3 mps 715 mmHg 85%
    19:00 +10°C° 0.3 mm 3 mps 715 mmHg 94%
    20:00 +9°C° 0.2 mm 3 mps 716 mmHg 93%
    21:00 +8°C° 0.2 mm 3 mps 717 mmHg 93%
    22:00 +8°C° 0 mm 2 mps 717 mmHg 94%
    23:00 +7°C° 0 mm 3 mps 717 mmHg 92%

    Tomorrow, 24 September, Monday

    Time Temperature Precipitation Wind Pressure Humidity
    00:00 +5°C° 0 mm 3 mps 717 mmHg 90%
    01:00 +4°C° 0 mm 3 mps 717 mmHg 88%
    02:00 +3°C° 0 mm 3 mps 717 mmHg 87%
    03:00 +2°C° 0 mm 3 mps 717 mmHg 86%
    04:00 +1°C° 0 mm 3 mps 717 mmHg 86%
    05:00 +2°C° 0 mm 3 mps 717 mmHg 84%
    06:00 +2°C° 0 mm 3 mps 717 mmHg 82%
    07:00 +3°C° 0 mm 3 mps 718 mmHg 80%
    08:00 +5°C° 0 mm 3 mps 718 mmHg 71%
    09:00 +9°C° 0 mm 3 mps 718 mmHg 62%
    10:00 +11°C° 0 mm 3 mps 719 mmHg 53%
    11:00 +12°C° 0 mm 3 mps 718 mmHg 51%
    12:00 +13°C° 0 mm 3 mps 718 mmHg 49%
    13:00 +14°C° 0 mm 3 mps 718 mmHg 47%
    14:00 +13°C° 0 mm 3 mps 717 mmHg 51%
    15:00 +12°C° 0 mm 3 mps 717 mmHg 56%
    16:00 +11°C° 0 mm 3 mps 716 mmHg 60%
    17:00 +10°C° 0 mm 3 mps 716 mmHg 69%
    18:00 +8°C° 0 mm 3 mps 717 mmHg 77%
    19:00 +6°C° 0 mm 2 mps 717 mmHg 86%
    20:00 +5°C° 0 mm 2 mps 717 mmHg 89%
    21:00 +4°C° 0 mm 2 mps 717 mmHg 92%
    22:00 +5°C° 0 mm 1 mps 717 mmHg 95%
    23:00 +4°C° 0 mm 1 mps 717 mmHg 95%

    Day after tomorrow, 25 September, Tuesday

    Time Temperature Precipitation Wind Pressure Humidity
    00:00 +4°C° 0 mm 1 mps 717 mmHg 96%
    01:00 +4°C° 0 mm 1 mps 717 mmHg 96%
    02:00 +3°C° 0 mm 1 mps 716 mmHg 96%
    03:00 +3°C° 0 mm 1 mps 716 mmHg 96%
    04:00 +2°C° 0 mm 1 mps 716 mmHg 96%
    05:00 +3°C° 0 mm 1 mps 716 mmHg 94%
    06:00 +3°C° 0 mm 0 mps 716 mmHg 91%
    07:00 +4°C° 0 mm 0 mps 717 mmHg 88%
    08:00 +8°C° 0 mm 1 mps 717 mmHg 76%
    09:00 +11°C° 0 mm 1 mps 717 mmHg 65%
    10:00 +14°C° 0 mm 1 mps 717 mmHg 53%
    11:00 +14°C° 0.1 mm 1 mps 716 mmHg 52%
    12:00 +15°C° 0.1 mm 1 mps 716 mmHg 52%
    13:00 +15°C° 0.1 mm 1 mps 715 mmHg 51%
    14:00 +15°C° 0.2 mm 1 mps 715 mmHg 54%
    15:00 +14°C° 0.2 mm 2 mps 714 mmHg 58%
    16:00 +14°C° 0.2 mm 2 mps 714 mmHg 61%
    17:00 +12°C° 0.4 mm 2 mps 714 mmHg 71%
    18:00 +10°C° 0.4 mm 1 mps 714 mmHg 80%
    19:00 +9°C° 0.4 mm 1 mps 714 mmHg 89%
    20:00 +8°C° 0.2 mm 1 mps 714 mmHg 91%
    21:00 +6°C° 0.2 mm 2 mps 715 mmHg 93%
    22:00 +6°C° 0.2 mm 2 mps 715 mmHg 95%
    23:00 +5°C° 0.1 mm 2 mps 715 mmHg 96%

    26 September, Wednesday

    Time Temperature Precipitation Wind Pressure Humidity
    00:00 +5°C° 0.1 mm 2 mps 715 mmHg 97%
    01:00 +5°C° 0.1 mm 2 mps 715 mmHg 97%
    02:00 +6°C° 0 mm 1 mps 714 mmHg 97%
    03:00 +6°C° 0 mm 1 mps 714 mmHg 97%
    04:00 +5°C° 0 mm 1 mps 714 mmHg 97%
    05:00 +6°C° 0 mm 1 mps 714 mmHg 96%
    06:00 +6°C° 0 mm 1 mps 714 mmHg 95%
    07:00 +7°C° 0 mm 1 mps 715 mmHg 94%
    08:00 +8°C° 0 mm 1 mps 715 mmHg 88%
    09:00 +9°C° 0 mm 1 mps 714 mmHg 82%
    10:00 +10°C° 0 mm 2 mps 714 mmHg 76%
    11:00 +12°C° 0 mm 1 mps 714 mmHg 68%
    12:00 +14°C° 0 mm 1 mps 714 mmHg 61%
    13:00 +15°C° 0 mm 1 mps 713 mmHg 53%
    14:00 +15°C° 0 mm 1 mps 713 mmHg 52%
    15:00 +15°C° 0 mm 1 mps 712 mmHg 51%
    16:00 +15°C° 0 mm 1 mps 712 mmHg 49%
    17:00 +13°C° 0 mm 1 mps 712 mmHg 60%
    18:00 +11°C° 0 mm 1 mps 712 mmHg 71%
    19:00 +8°C° 0 mm 1 mps 712 mmHg 81%
    20:00 +8°C° 0 mm 1 mps 712 mmHg 86%
    21:00 +7°C° 0 mm 1 mps 712 mmHg 90%
    22:00 +6°C° 0 mm 1 mps 713 mmHg 95%
    23:00 +6°C° 0 mm 1 mps 712 mmHg 95%

    27 September, Thursday

    Time Temperature Precipitation Wind Pressure Humidity
    00:00 +6°C° 0 mm 1 mps 712 mmHg 96%
    01:00 +6°C° 0 mm 1 mps 711 mmHg 97%
    02:00 +6°C° 0 mm 1 mps 711 mmHg 96%
    03:00 +6°C° 0 mm 1 mps 711 mmHg 96%
    04:00 +6°C° 0 mm 1 mps 710 mmHg 95%
    05:00 +7°C° 0 mm 1 mps 710 mmHg 92%
    06:00 +8°C° 0 mm 1 mps 711 mmHg 88%
    07:00 +8°C° 0 mm 1 mps 711 mmHg 84%
    08:00 +12°C° 0 mm 2 mps 711 mmHg 73%
    09:00 +14°C° 0 mm 3 mps 711 mmHg 62%
    10:00 +17°C° 0 mm 5 mps 711 mmHg 51%
    11:00 +19°C° 0 mm 5 mps 710 mmHg 49%
    12:00 +20°C° 0 mm 5 mps 710 mmHg 46%
    13:00 +21°C° 0 mm 6 mps 709 mmHg 44%
    14:00 +21°C° 0.3 mm 5 mps 709 mmHg 49%
    15:00 +21°C° 0.3 mm 4 mps 708 mmHg 53%
    16:00 +20°C° 0.3 mm 4 mps 707 mmHg 57%
    17:00 +18°C° 0.1 mm 3 mps 707 mmHg 63%
    18:00 +17°C° 0.1 mm 3 mps 707 mmHg 68%
    19:00 +15°C° 0.1 mm 2 mps 707 mmHg 74%
    20:00 +15°C° 0 mm 2 mps 707 mmHg 71%
    21:00 +13°C° 0 mm 3 mps 707 mmHg 69%
    22:00 +13°C° 0 mm 3 mps 707 mmHg 66%
    23:00 +13°C° 0 mm 3 mps 707 mmHg 68%

    28 September, Friday

    Time Temperature Precipitation Wind Pressure Humidity
    00:00 +12°C° 0 mm 3 mps 707 mmHg 70%
    01:00 +12°C° 0 mm 3 mps 707 mmHg 71%
    02:00 +11°C° 0 mm 3 mps 707 mmHg 76%
    03:00 +10°C° 0 mm 2 mps 707 mmHg 80%
    04:00 +9°C° 0 mm 2 mps 706 mmHg 85%
    05:00 +10°C° 0 mm 2 mps 707 mmHg 85%
    06:00 +10°C° 0 mm 2 mps 707 mmHg 85%
    07:00 +12°C° 0 mm 2 mps 708 mmHg 85%
    08:00 +12°C° 0.2 mm 3 mps 708 mmHg 82%
    09:00 +13°C° 0.2 mm 4 mps 708 mmHg 80%
    10:00 +15°C° 0.2 mm 5 mps 708 mmHg 77%
    11:00 +15°C° 0.3 mm 4 mps 707 mmHg 80%
    12:00 +15°C° 0.3 mm 4 mps 706 mmHg 82%
    13:00 +15°C° 0.3 mm 4 mps 706 mmHg 85%
    14:00 +15°C° 0.5 mm 4 mps 705 mmHg 85%
    15:00 +16°C° 0.5 mm 3 mps 705 mmHg 85%
    16:00 +16°C° 0.5 mm 3 mps 705 mmHg 86%
    17:00 +14°C° 0.2 mm 2 mps 705 mmHg 88%
    18:00 +13°C° 0.2 mm 1 mps 705 mmHg 91%
    19:00 +11°C° 0.2 mm 1 mps 706 mmHg 94%
    20:00 +11°C° 0.2 mm 1 mps 706 mmHg 94%
    21:00 +10°C° 0.2 mm 1 mps 706 mmHg 94%
    22:00 +10°C° 0.2 mm 1 mps 706 mmHg 94%
    23:00 +9°C° 0.1 mm 1 mps 706 mmHg 93%
    Show more